Triuchirapalli, India

3:39 AM IST on November 24, 2017 (GMT +0530)
Tiruchirappalli

Weather History for VOTR - October, 2011

Change the Weather History Date:

Monday, October 24, 2011

  Actual Average Record
Temperature  
Mean Temperature 82 °F -  
Max Temperature 89 °F 84 °F 96 °F (2010)
Min Temperature 75 °F 74 °F 73 °F (2007)
Cooling Degree Days 17    
Growing Degree Days 32 (Base 50)    
Moisture  
Dew Point 76 °F    
Average Humidity 85    
Maximum Humidity 100    
Minimum Humidity 65    
Precipitation  
Precipitation 0.35 in - - ()
Sea Level Pressure  
Sea Level Pressure 29.81 in    
Wind  
Wind Speed 4 mph ()    
Max Wind Speed 10 mph    
Max Gust Speed -    
Visibility 3.3 miles    
Events Rain , Thunderstorm    
Averages and records for this station are not official NWS values.
T = Trace of Precipitation, MM = Missing Value Source: Averaged Metar Reports

Daily Weather History Graph

Daily Weather History Graph

Search for Another Location

Airport or City:

Trip Planner

Search our weather history database for the weather conditions in past years. The results will help you decide how hot, cold, wet, or windy it might be!

Date:

Astronomy

Oct. 24, 2011 Rise Set
Actual Time 6:04 AM IST 5:53 PM IST
Civil Twilight 5:43 AM IST 6:15 PM IST
Nautical Twilight 5:18 AM IST 6:40 PM IST
Astronomical Twilight 4:53 AM IST 7:04 PM IST
Moon 3:18 AM IST (10/24) 3:40 PM IST (10/24)
Length of Visible Light 12h 31m
Length of Day
11h 48m
Waning Crescent, 10% of the Moon is Illuminated
Oct 24
Waning Crescent
Oct 27
New
Nov 2
First Quarter
Nov 11
Full
Nov 18
Last Quarter

Hourly Weather History & Observations

Time (IST) Temp. Heat Index Dew Point Humidity Pressure Visibility Wind Dir Wind Speed Gust Speed Precip Events Conditions
12:10 AM 75.2 °F - 75.2 °F 100% 29.86 in 3.7 mi Calm Calm - N/A   Mostly Cloudy
1:10 AM 75.2 °F - 75.2 °F 100% 29.86 in 3.7 mi Calm Calm - N/A   Scattered Clouds
1:40 AM 75.2 °F - 75.2 °F 100% 29.83 in 3.7 mi Calm Calm - N/A   Scattered Clouds
2:10 AM 75.2 °F - 75.2 °F 100% 29.80 in 3.7 mi North 4.6 mph - N/A   Partly Cloudy
2:30 AM 76 °F - 75 °F 95% 29.80 in 2 mi North 4.6 mph - -   Haze
2:40 AM 75.2 °F - 75.2 °F 100% 29.80 in 3.7 mi North 2.3 mph - N/A   Partly Cloudy
3:10 AM 75.2 °F - 75.2 °F 100% 29.80 in 3.7 mi NW 2.3 mph - N/A   Partly Cloudy
3:40 AM 77.0 °F - 75.2 °F 94% 29.80 in 3.7 mi West 2.3 mph - N/A   Mostly Cloudy
4:10 AM 75.2 °F - 75.2 °F 100% 29.77 in 3.7 mi NNW 2.3 mph - N/A   Scattered Clouds
5:30 AM 76 °F - 74 °F 91% 29.79 in 2 mi WNW 3.5 mph - -   Haze
7:10 AM 77.0 °F - 73.4 °F 89% 29.80 in 3.1 mi WNW 4.6 mph - N/A   Haze
7:40 AM 77.0 °F - 73.4 °F 89% 29.83 in 3.1 mi NW 2.3 mph - N/A   Haze
8:30 AM 79 °F - 76 °F 89% 29.86 in 2 mi West 3.5 mph - -   Haze
8:40 AM 78.8 °F - 75.2 °F 89% 29.86 in 3.7 mi West 4.6 mph - N/A   Mostly Cloudy
9:10 AM 80.6 °F 86.2 °F 75.2 °F 84% 29.86 in 3.7 mi NNE 4.6 mph - N/A   Mostly Cloudy
9:40 AM 80.6 °F 86.2 °F 75.2 °F 84% 29.86 in 3.7 mi North 9.2 mph - N/A   Mostly Cloudy
10:10 AM 80.6 °F 86.2 °F 75.2 °F 84% 29.83 in 3.7 mi NE 6.9 mph - N/A   Mostly Cloudy
10:40 AM 82.4 °F 89.5 °F 75.2 °F 79% 29.86 in 3.7 mi ENE 6.9 mph - N/A   Mostly Cloudy
11:10 AM 82.4 °F 89.5 °F 75.2 °F 79% 29.83 in 3.7 mi ENE 6.9 mph - N/A   Mostly Cloudy
11:30 AM 85 °F - 77 °F 72% 29.83 in 2 mi NE 9.2 mph - -   Haze
11:40 AM 84.2 °F 94.1 °F 77.0 °F 79% 29.83 in 3.7 mi NE 6.9 mph - N/A   Mostly Cloudy
12:10 PM 86.0 °F 96.9 °F 77.0 °F 74% 29.80 in 3.7 mi ENE 9.2 mph - N/A   Mostly Cloudy
12:40 PM 86.0 °F 96.9 °F 77.0 °F 74% 29.80 in 3.7 mi East 6.9 mph - N/A   Mostly Cloudy
1:10 PM 87.8 °F 99.7 °F 77.0 °F 70% 29.77 in 3.7 mi NE 10.4 mph - N/A   Mostly Cloudy
1:40 PM 87.8 °F 99.7 °F 77.0 °F 70% 29.77 in 3.7 mi NNE 9.2 mph - N/A   Mostly Cloudy
2:10 PM 87.8 °F 99.7 °F 77.0 °F 70% 29.77 in 3.7 mi East 6.9 mph - N/A   Mostly Cloudy
2:30 PM 86 °F - 76 °F 65% 29.73 in 2 mi ENE 5.8 mph - -   Haze
3:10 PM 87.8 °F 99.7 °F 77.0 °F 70% 29.74 in 3.7 mi NE 9.2 mph - N/A   Mostly Cloudy
4:10 PM 86.0 °F 95.1 °F 75.2 °F 70% 29.74 in 3.7 mi East 6.9 mph - N/A   Mostly Cloudy
5:10 PM 84.2 °F 94.1 °F 77.0 °F 79% 29.74 in 3.7 mi ENE 9.2 mph - N/A Thunderstorm Thunderstorm
5:30 PM 83 °F - 76 °F 74% 29.77 in 1 mi NE 9.2 mph - - Rain , Thunderstorm Thunderstorms and Rain
7:10 PM 82.4 °F 90.9 °F 77.0 °F 84% 29.80 in 3.7 mi Variable 2.3 mph - N/A   Partly Cloudy
7:40 PM 82.4 °F 90.9 °F 77.0 °F 84% 29.80 in 3.7 mi Variable 2.3 mph - N/A   Unknown
8:10 PM 78.8 °F - 75.2 °F 89% 29.83 in 3.7 mi North 3.5 mph - N/A   Mostly Cloudy
8:30 PM 77 °F - 76 °F 94% 29.82 in 2 mi NNE 3.5 mph - -   Partly Cloudy
8:40 PM 77.0 °F - 75.2 °F 94% 29.83 in 3.7 mi NNE 3.5 mph - N/A   Mostly Cloudy
9:10 PM 77.0 °F - 75.2 °F 94% 29.83 in 3.7 mi Calm Calm - N/A   Partly Cloudy
9:40 PM 78.8 °F - 75.2 °F 89% 29.83 in 3.7 mi Calm Calm - N/A   Mostly Cloudy
11:30 PM 78 °F - 76 °F 92% 29.83 in 1 mi Calm Calm - - Rain Light Rain
11:40 PM - - - N/A% 29.83 in 3.1 mi NNE 2.3 mph - N/A Rain Light Rain